Silver City, NM

4:58 AM MDT on July 24, 2017 (GMT -0600)
Grant County

Weather History for KSVC - April, 2014

Change the Weather History Date:

Wednesday, April 2, 2014

  Actual Average (KDMN) Record (KDMN)
Temperature  
Mean Temperature 52 °F -  
Max Temperature 68 °F 72 °F 90 °F (2011)
Min Temperature 37 °F 36 °F 22 °F (1970)
Degree Days  
Heating Degree Days 12    
Growing Degree Days 2 (Base 50)    
Moisture  
Dew Point 3 °F    
Average Humidity 14    
Maximum Humidity 37    
Minimum Humidity 7    
Precipitation  
Precipitation 0.00 in - - ()
Sea Level Pressure  
Sea Level Pressure 29.88 in    
Wind  
Wind Speed 15 mph (WNW)    
Max Wind Speed 32 mph    
Max Gust Speed 47 mph    
Visibility 10 miles    
Events      
Averages and records for this station are not official NWS values.
T = Trace of Precipitation, MM = Missing Value Source: NWS Daily Summary

Daily Weather History Graph

Daily Weather History Graph

Search for Another Location

Airport or City:

Trip Planner

Search our weather history database for the weather conditions in past years. The results will help you decide how hot, cold, wet, or windy it might be!

Date:

Astronomy

Apr. 02, 2014 Rise Set
Actual Time 6:59 AM MDT 7:33 PM MDT
Civil Twilight 6:34 AM MDT 7:58 PM MDT
Nautical Twilight 6:05 AM MDT 8:27 PM MDT
Astronomical Twilight 5:35 AM MDT 8:57 PM MDT
Moon 8:55 AM MDT (4/2) 10:49 PM MDT (4/2)
Length of Visible Light 13h 23m
Length of Day
12h 34m
Waxing Crescent, 10% of the Moon is Illuminated
Apr 2
Waxing Crescent
Apr 7
First Quarter
Apr 15
Full
Apr 22
Last Quarter
Apr 29
New

Hourly Weather History & Observations

Time (MDT) Temp. Windchill Dew Point Humidity Pressure Visibility Wind Dir Wind Speed Gust Speed Precip Events Conditions
12:15 AM 53.6 °F - -7.6 °F 8% 29.96 in 10.0 mi WNW 12.7 mph - N/A   Clear
12:35 AM 51.8 °F - -7.6 °F 8% 29.95 in 10.0 mi WNW 11.5 mph - N/A   Clear
12:55 AM 50.0 °F - -7.6 °F 9% 29.96 in 10.0 mi WNW 12.7 mph - N/A   Clear
1:15 AM 48.2 °F - -7.6 °F 10% 29.95 in 10.0 mi WNW 11.5 mph - N/A   Clear
1:35 AM 48.2 °F - -7.6 °F 10% 29.95 in 10.0 mi WNW 10.4 mph - N/A   Clear
1:55 AM 48.2 °F - -9.4 °F 9% 29.94 in 10.0 mi WNW 12.7 mph - N/A   Clear
2:15 AM 48.2 °F - -9.4 °F 9% 29.94 in 10.0 mi West 11.5 mph - N/A   Clear
2:35 AM 48.2 °F - -9.4 °F 9% 29.94 in 10.0 mi West 8.1 mph - N/A   Clear
2:55 AM 46.4 °F 41.9 °F -9.4 °F 9% 29.93 in 10.0 mi WSW 9.2 mph - N/A   Clear
3:15 AM 46.4 °F 41.5 °F -9.4 °F 9% 29.93 in 10.0 mi WSW 10.4 mph - N/A   Clear
3:35 AM 48.2 °F - -9.4 °F 9% 29.92 in 10.0 mi West 11.5 mph - N/A   Clear
3:55 AM 48.2 °F - -9.4 °F 9% 29.91 in 10.0 mi West 10.4 mph - N/A   Clear
4:15 AM 44.6 °F 38.8 °F -9.4 °F 10% 29.91 in 10.0 mi WNW 11.5 mph - N/A   Clear
4:35 AM 41.0 °F 34.3 °F -9.4 °F 12% 29.91 in 10.0 mi NW 11.5 mph - N/A   Clear
4:55 AM 39.2 °F 32.0 °F -9.4 °F 12% 29.91 in 10.0 mi NW 11.5 mph - N/A   Clear
5:15 AM 37.4 °F 30.3 °F -9.4 °F 13% 29.90 in 10.0 mi NW 10.4 mph - N/A   Clear
6:35 AM 37.4 °F 28.9 °F -9.4 °F 13% 29.90 in 10.0 mi NNW 13.8 mph - N/A   Clear
6:55 AM 39.2 °F 32.0 °F -11.2 °F 11% 29.90 in 10.0 mi NNW 11.5 mph - N/A   Clear
7:15 AM 37.4 °F 29.3 °F -9.4 °F 13% 29.91 in 10.0 mi NNW 12.7 mph - N/A   Clear
7:35 AM 41.0 °F 35.2 °F -9.4 °F 12% 29.92 in 10.0 mi NNW 9.2 mph - N/A   Clear
7:55 AM 44.6 °F 40.7 °F -9.4 °F 10% 29.92 in 10.0 mi NNW 6.9 mph - N/A   Clear
8:15 AM 48.2 °F - -9.4 °F 9% 29.93 in 10.0 mi NNW 9.2 mph - N/A   Clear
8:35 AM 51.8 °F - -9.4 °F 8% 29.93 in 10.0 mi NNW 11.5 mph - N/A   Clear
8:55 AM 53.6 °F - -7.6 °F 8% 29.93 in 10.0 mi NW 11.5 mph - N/A   Clear
9:15 AM 55.4 °F - -5.8 °F 8% 29.93 in 10.0 mi West 11.5 mph - N/A   Clear
9:35 AM 57.2 °F - -4.0 °F 8% 29.93 in 10.0 mi West 17.3 mph 21.9 mph N/A   Clear
9:55 AM 57.2 °F - -2.2 °F 9% 29.93 in 10.0 mi West 13.8 mph 19.6 mph N/A   Clear
10:15 AM 57.2 °F - -2.2 °F 9% 29.93 in 10.0 mi West 12.7 mph 20.7 mph N/A   Clear
10:35 AM 59.0 °F - -2.2 °F 8% 29.93 in 10.0 mi West 17.3 mph 24.2 mph N/A   Clear
10:55 AM 59.0 °F - -4.0 °F 8% 29.92 in 10.0 mi West 15.0 mph 26.5 mph N/A   Clear
11:15 AM 59.0 °F - -4.0 °F 8% 29.92 in 10.0 mi West 18.4 mph 24.2 mph N/A   Clear
11:55 AM 62.6 °F - -2.2 °F 7% 29.91 in 10.0 mi WSW 19.6 mph 27.6 mph N/A   Clear
12:15 PM 64.4 °F - -0.4 °F 7% 29.90 in 10.0 mi West 23.0 mph 31.1 mph N/A   Clear
12:35 PM 64.4 °F - 1.4 °F 8% 29.90 in 10.0 mi WSW 20.7 mph 32.2 mph N/A   Clear
12:55 PM 64.4 °F - 1.4 °F 8% 29.89 in 10.0 mi WSW 19.6 mph 33.4 mph N/A   Clear
1:15 PM 64.4 °F - 3.2 °F 9% 29.88 in 10.0 mi SW 20.7 mph 32.2 mph N/A   Clear
1:35 PM 66.2 °F - 5.0 °F 9% 29.86 in 10.0 mi WSW 26.5 mph 34.5 mph N/A   Clear
1:55 PM 66.2 °F - 5.0 °F 9% 29.86 in 10.0 mi WSW 19.6 mph 35.7 mph N/A   Clear
2:15 PM 68.0 °F - 5.0 °F 8% 29.84 in 10.0 mi West 24.2 mph 35.7 mph N/A   Clear
2:35 PM 66.2 °F - 5.0 °F 9% 29.83 in 9.0 mi West 26.5 mph 34.5 mph N/A   Clear
2:55 PM 68.0 °F - 5.0 °F 8% 29.83 in 5.0 mi WSW 31.1 mph 39.1 mph N/A   Haze
3:15 PM 68.0 °F - 5.0 °F 8% 29.82 in 6.0 mi WSW 25.3 mph 41.4 mph N/A   Haze
3:35 PM 68.0 °F - 5.0 °F 8% 29.81 in 8.0 mi WSW 24.2 mph 39.1 mph N/A   Clear
3:55 PM 68.0 °F - 5.0 °F 8% 29.80 in 5.0 mi West 29.9 mph 43.7 mph N/A   Haze
4:15 PM 66.2 °F - 5.0 °F 9% 29.80 in 3.0 mi West 29.9 mph 39.1 mph N/A   Haze
4:35 PM 68.0 °F - 8.6 °F 10% 29.80 in 4.0 mi West 24.2 mph 47.2 mph N/A   Haze
4:55 PM 66.2 °F - 10.4 °F 11% 29.80 in 10.0 mi West 26.5 mph 35.7 mph N/A   Clear
5:15 PM 66.2 °F - 8.6 °F 11% 29.80 in 9.0 mi WSW 23.0 mph 35.7 mph N/A   Clear
5:35 PM 64.4 °F - 14.0 °F 14% 29.79 in 10.0 mi West 32.2 mph 38.0 mph N/A   Clear
5:55 PM 62.6 °F - 15.8 °F 16% 29.80 in 10.0 mi West 25.3 mph 36.8 mph N/A   Clear
6:15 PM 62.6 °F - 15.8 °F 16% 29.80 in 10.0 mi West 27.6 mph 41.4 mph N/A   Clear
6:35 PM 60.8 °F - 17.6 °F 19% 29.80 in 10.0 mi West 28.8 mph 38.0 mph N/A   Clear
6:55 PM 59.0 °F - 17.6 °F 20% 29.80 in 10.0 mi West 24.2 mph 34.5 mph N/A   Clear
7:15 PM 59.0 °F - 17.6 °F 20% 29.81 in 10.0 mi West 25.3 mph 32.2 mph N/A   Clear
7:35 PM 57.2 °F - 19.4 °F 23% 29.81 in 10.0 mi WNW 19.6 mph 29.9 mph N/A   Clear
7:55 PM 55.4 °F - 21.2 °F 26% 29.82 in 10.0 mi WNW 23.0 mph 27.6 mph N/A   Clear
8:15 PM 53.6 °F - 23.0 °F 30% 29.82 in 10.0 mi WNW 17.3 mph 25.3 mph N/A   Clear
8:35 PM 51.8 °F - 23.0 °F 33% 29.83 in 10.0 mi WNW 17.3 mph 21.9 mph N/A   Clear
8:55 PM 50.0 °F - 23.0 °F 35% 29.84 in 10.0 mi WNW 16.1 mph 21.9 mph N/A   Clear
9:15 PM 50.0 °F - 23.0 °F 35% 29.85 in 10.0 mi WNW 15.0 mph 26.5 mph N/A   Clear
9:35 PM 50.0 °F - 23.0 °F 35% 29.86 in 10.0 mi WNW 17.3 mph - N/A   Clear
9:55 PM 50.0 °F - 21.2 °F 32% 29.86 in 10.0 mi WNW 20.7 mph 25.3 mph N/A   Clear
10:15 PM 48.2 °F - 21.2 °F 34% 29.87 in 10.0 mi WNW 19.6 mph 23.0 mph N/A   Clear
10:35 PM 48.2 °F - 21.2 °F 34% 29.87 in 10.0 mi WNW 17.3 mph - N/A   Clear
10:55 PM 48.2 °F - 19.4 °F 32% 29.88 in 10.0 mi WNW 15.0 mph 26.5 mph N/A   Clear
11:15 PM 46.4 °F 40.4 °F 19.4 °F 34% 29.88 in 10.0 mi WNW 13.8 mph 23.0 mph N/A   Clear
11:55 PM 44.6 °F 41.4 °F 19.4 °F 37% 29.90 in 10.0 mi WNW 5.8 mph - N/A   Clear